Location: Gellin
(53.4498°N, 14.3207°E)
Time: 23:21:23
(UTC+00:00)

Spot 2 Rocket - Pass Details

Date: 03 March 2021
Orbit: 757 x 772 km, 98.5° (Epoch: 12 April)

Event Time Altitude Azimuth Distance (km) Brightness Sun altitude
Exits shadow 20:01:34 56° 358° (N) 916 3.9 -29.0°
Drops below altitude 10° 20:05:38 10° 346° (NNW) 2,330 6.5 -29.5°
Sets 20:07:57 0° 346° (NNW) 3,262 7.4 -29.8°
